�������l�o���
Date,Time,MP-1(��Sv/h),MP-2(��Sv/h),MP-3(��Sv/h),MP-4(��Sv/h),MP-5(��Sv/h),MP-6(��Sv/h),MP-7(��Sv/h),MP-8(��Sv/h),����,����(m/s),���J
2021/10/05,00:00,0.592,0.885,0.562,1.072,0.762,0.360,0.624,0.583,���k��,1.9,��
2021/10/05,00:10,0.592,0.884,0.564,1.072,0.763,0.360,0.624,0.583,���쓌,1.7,��
2021/10/05,00:20,0.591,0.884,0.562,1.074,0.762,0.361,0.624,0.583,���쓌,2.0,��
2021/10/05,00:30,0.592,0.882,0.563,1.073,0.764,0.360,0.623,0.584,��쓌,1.4,��
2021/10/05,00:40,0.592,0.884,0.562,1.072,0.761,0.361,0.624,0.583,��쐼,2.6,��
2021/10/05,00:50,0.592,0.884,0.564,1.074,0.763,0.361,0.622,0.583,�쐼,3.5,��
2021/10/05,01:00,0.592,0.884,0.563,1.073,0.764,0.360,0.623,0.584,��쐼,3.2,��
2021/10/05,01:10,0.591,0.883,0.562,1.076,0.762,0.360,0.623,0.584,��쐼,4.3,��
2021/10/05,01:20,0.592,0.886,0.562,1.074,0.764,0.360,0.625,0.583,��쐼,5.7,��
2021/10/05,01:30,0.590,0.886,0.562,1.074,0.762,0.359,0.624,0.584,�쐼,6.3,��
2021/10/05,01:40,0.591,0.881,0.563,1.073,0.763,0.361,0.624,0.586,�쐼,6.0,��
2021/10/05,01:50,0.591,0.884,0.561,1.073,0.763,0.360,0.624,0.584,�쐼,5.0,��
2021/10/05,02:00,0.590,0.885,0.564,1.071,0.762,0.361,0.624,0.583,�쐼,5.5,��
2021/10/05,02:10,0.591,0.884,0.562,1.073,0.763,0.358,0.623,0.583,�쐼,5.6,��
2021/10/05,02:20,0.591,0.883,0.564,1.073,0.762,0.361,0.624,0.584,�쐼,4.6,��
2021/10/05,02:30,0.593,0.882,0.563,1.074,0.764,0.360,0.625,0.584,�쐼,4.0,��
2021/10/05,02:40,0.589,0.883,0.563,1.072,0.762,0.361,0.624,0.584,�쐼,3.6,��
2021/10/05,02:50,0.591,0.884,0.564,1.073,0.761,0.361,0.624,0.583,�쐼,3.1,��
2021/10/05,03:00,0.591,0.884,0.564,1.071,0.761,0.362,0.625,0.583,���쐼,2.9,��
2021/10/05,03:10,0.592,0.884,0.562,1.071,0.762,0.360,0.624,0.584,���쐼,3.3,��
2021/10/05,03:20,0.591,0.883,0.562,1.072,0.762,0.362,0.623,0.584,��,2.6,��
2021/10/05,03:30,0.591,0.882,0.561,1.072,0.762,0.361,0.622,0.586,���쐼,1.7,��
2021/10/05,03:40,0.592,0.885,0.562,1.075,0.761,0.359,0.624,0.585,�k��,1.5,��
2021/10/05,03:50,0.590,0.883,0.562,1.073,0.763,0.361,0.623,0.583,���쐼,0.8,��
2021/10/05,04:00,0.589,0.882,0.563,1.073,0.761,0.360,0.622,0.584,�쐼,1.7,��
2021/10/05,04:10,0.588,0.881,0.562,1.071,0.759,0.361,0.623,0.582,���쐼,3.3,��
2021/10/05,04:20,0.593,0.880,0.562,1.073,0.762,0.360,0.624,0.584,���쐼,2.5,��
2021/10/05,04:30,0.589,0.883,0.562,1.073,0.762,0.361,0.624,0.585,���쐼,2.3,��
2021/10/05,04:40,0.590,0.883,0.562,1.073,0.762,0.361,0.625,0.585,���쐼,2.5,��
2021/10/05,04:50,0.589,0.881,0.562,1.072,0.760,0.362,0.622,0.584,���쐼,1.7,��
2021/10/05,05:00,0.590,0.883,0.563,1.072,0.762,0.359,0.623,0.584,���쐼,1.1,��
2021/10/05,05:10,0.592,0.882,0.561,1.075,0.761,0.359,0.623,0.584,��쐼,1.2,��
2021/10/05,05:20,0.590,0.884,0.563,1.072,0.761,0.359,0.623,0.585,�쐼,2.3,��
2021/10/05,05:30,0.591,0.882,0.562,1.073,0.761,0.361,0.624,0.584,���쐼,4.3,��
2021/10/05,05:40,0.590,0.884,0.563,1.075,0.762,0.361,0.625,0.583,���쐼,3.9,��
2021/10/05,05:50,0.592,0.884,0.562,1.073,0.760,0.358,0.624,0.584,���쐼,2.6,��
2021/10/05,06:00,0.590,0.884,0.563,1.074,0.760,0.361,0.624,0.584,�쐼,2.0,��
2021/10/05,06:10,0.591,0.884,0.564,1.074,0.762,0.360,0.624,0.584,���쐼,3.2,��
2021/10/05,06:20,0.592,0.882,0.564,1.074,0.760,0.360,0.623,0.585,�쐼,2.0,��
2021/10/05,06:30,0.590,0.880,0.562,1.074,0.764,0.360,0.623,0.584,-,CALM,��
2021/10/05,06:40,0.589,0.883,0.564,1.074,0.761,0.360,0.624,0.583,���쐼,1.5,��
2021/10/05,06:50,0.591,0.883,0.564,1.074,0.762,0.361,0.623,0.584,��,1.7,��
2021/10/05,07:00,0.589,0.882,0.564,1.073,0.762,0.361,0.624,0.585,��,1.2,��
2021/10/05,07:10,0.591,0.883,0.564,1.075,0.762,0.359,0.624,0.584,-,CALM,��
2021/10/05,07:20,0.592,0.883,0.563,1.074,0.760,0.360,0.624,0.586,-,CALM,��
2021/10/05,07:30,0.592,0.884,0.563,1.075,0.762,0.360,0.623,0.584,���k��,0.9,��
2021/10/05,07:40,0.591,0.884,0.564,1.077,0.762,0.360,0.623,0.585,���k��,1.2,��
2021/10/05,07:50,0.591,0.883,0.567,1.072,0.762,0.360,0.624,0.584,�k�k��,0.6,��
2021/10/05,08:00,0.591,0.884,0.565,1.074,0.760,0.358,0.624,0.584,���k��,1.4,��
2021/10/05,08:10,0.591,0.883,0.565,1.073,0.762,0.360,0.622,0.585,��,2.0,��
2021/10/05,08:20,0.591,0.882,0.565,1.073,0.762,0.359,0.622,0.585,���쐼,2.2,��
2021/10/05,08:30,0.590,0.883,0.564,1.074,0.763,0.357,0.623,0.584,�쐼,2.2,��
2021/10/05,08:40,0.590,0.883,0.565,1.074,0.763,0.359,0.622,0.584,�쐼,1.7,��
2021/10/05,08:50,0.592,0.882,0.564,1.075,0.762,0.359,0.623,0.583,�쐼,1.2,��
2021/10/05,09:00,0.593,0.881,0.565,1.074,0.762,0.358,0.623,0.584,��쐼,1.5,��
2021/10/05,09:10,0.593,0.884,0.564,1.075,0.764,0.359,0.622,0.583,��쐼,2.5,��
2021/10/05,09:20,0.592,0.883,0.562,1.074,0.764,0.357,0.623,0.582,��쐼,1.4,��
2021/10/05,09:30,0.593,0.883,0.563,1.074,0.761,0.358,0.622,0.583,��쐼,0.9,��
2021/10/05,09:40,0.594,0.880,0.563,1.074,0.760,0.360,0.623,0.582,��쐼,1.1,��
2021/10/05,09:50,0.591,0.882,0.563,1.073,0.762,0.360,0.623,0.582,-,CALM,��
2021/10/05,10:00,0.591,0.886,0.562,1.076,0.762,0.360,0.622,0.583,���쓌,1.5,��
2021/10/05,10:10,0.592,0.882,0.564,1.074,0.764,0.360,0.623,0.583,�쓌,2.0,��
2021/10/05,10:20,0.591,0.883,0.564,1.073,0.765,0.359,0.623,0.583,�쓌,2.2,��
2021/10/05,10:30,0.591,0.885,0.562,1.078,0.763,0.360,0.624,0.583,�쓌,2.3,��
2021/10/05,10:40,0.592,0.885,0.563,1.075,0.764,0.360,0.623,0.583,���쓌,2.0,��
2021/10/05,10:50,0.592,0.884,0.563,1.076,0.763,0.359,0.623,0.583,���쓌,1.4,��
2021/10/05,11:00,0.594,0.883,0.563,1.077,0.763,0.359,0.624,0.584,���쓌,2.6,��
2021/10/05,11:10,0.594,0.884,0.563,1.076,0.765,0.360,0.624,0.583,��,2.9,��
2021/10/05,11:20,0.593,0.885,0.565,1.075,0.764,0.361,0.625,0.583,���쓌,3.5,��
2021/10/05,11:30,0.593,0.886,0.566,1.076,0.763,0.360,0.625,0.581,�쓌,4.2,��
2021/10/05,11:40,0.594,0.887,0.563,1.078,0.766,0.360,0.625,0.584,�쓌,3.9,��
2021/10/05,11:50,0.594,0.885,0.565,1.077,0.765,0.359,0.625,0.582,�쓌,5.0,��
2021/10/05,12:00,0.593,0.888,0.565,1.078,0.766,0.361,0.625,0.583,��쓌,5.0,��
2021/10/05,12:10,0.594,0.887,0.565,1.076,0.764,0.359,0.624,0.584,��쓌,5.0,��
2021/10/05,12:20,0.594,0.886,0.566,1.076,0.765,0.362,0.623,0.584,��쓌,4.5,��
2021/10/05,12:30,0.593,0.889,0.564,1.077,0.764,0.362,0.624,0.584,��쓌,3.9,��
2021/10/05,12:40,0.594,0.887,0.566,1.077,0.766,0.362,0.624,0.583,�쓌,4.2,��
2021/10/05,12:50,0.594,0.888,0.564,1.077,0.766,0.360,0.626,0.584,�쓌,3.2,��
2021/10/05,13:00,0.593,0.886,0.566,1.079,0.768,0.361,0.625,0.582,��쓌,4.9,��
2021/10/05,13:10,0.594,0.888,0.566,1.077,0.766,0.360,0.624,0.584,��쓌,5.3,��
2021/10/05,13:20,0.594,0.887,0.567,1.078,0.767,0.362,0.626,0.584,��쓌,5.8,��
2021/10/05,13:30,0.593,0.886,0.566,1.078,0.767,0.362,0.625,0.584,��쓌,7.2,��
2021/10/05,13:40,0.595,0.888,0.566,1.079,0.767,0.361,0.624,0.584,��쓌,7.0,��
2021/10/05,13:50,0.594,0.885,0.567,1.076,0.765,0.361,0.624,0.583,��쓌,6.4,��
2021/10/05,14:00,0.595,0.884,0.565,1.079,0.766,0.359,0.625,0.583,��쓌,7.3,��
2021/10/05,14:10,0.594,0.888,0.566,1.079,0.767,0.361,0.627,0.585,��쓌,6.0,��
2021/10/05,14:20,0.594,0.887,0.567,1.079,0.768,0.362,0.627,0.584,��쓌,6.5,��
2021/10/05,14:30,0.595,0.889,0.566,1.080,0.766,0.360,0.627,0.583,��쓌,6.7,��
2021/10/05,14:40,0.594,0.888,0.567,1.079,0.768,0.362,0.625,0.584,��쓌,6.7,��
2021/10/05,14:50,0.594,0.889,0.566,1.080,0.769,0.362,0.625,0.584,��쓌,6.5,��
2021/10/05,15:00,0.594,0.889,0.567,1.079,0.767,0.360,0.626,0.582,��쓌,6.9,��
2021/10/05,15:10,0.594,0.890,0.566,1.080,0.770,0.360,0.625,0.584,��쓌,7.1,��
2021/10/05,15:20,0.595,0.890,0.565,1.079,0.768,0.361,0.625,0.584,��쓌,7.8,��
2021/10/05,15:30,0.596,0.889,0.565,1.080,0.767,0.361,0.626,0.583,��쓌,7.1,��
2021/10/05,15:40,0.594,0.888,0.567,1.081,0.767,0.360,0.626,0.584,��,5.8,��
2021/10/05,15:50,0.595,0.889,0.567,1.080,0.768,0.362,0.625,0.583,��,6.0,��
2021/10/05,16:00,0.596,0.890,0.566,1.080,0.769,0.361,0.626,0.584,��,6.0,��
2021/10/05,16:10,0.595,0.891,0.566,1.082,0.768,0.360,0.625,0.583,��,6.2,��
2021/10/05,16:20,0.596,0.888,0.567,1.080,0.769,0.361,0.626,0.584,��,6.4,��
2021/10/05,16:30,0.594,0.891,0.566,1.080,0.767,0.361,0.624,0.583,��,6.2,��
2021/10/05,16:40,0.597,0.892,0.566,1.080,0.771,0.361,0.626,0.583,��,6.3,��
2021/10/05,16:50,0.597,0.891,0.568,1.081,0.772,0.362,0.627,0.584,��,7.0,��
2021/10/05,17:00,0.596,0.892,0.567,1.083,0.771,0.363,0.627,0.584,��,6.7,��
2021/10/05,17:10,0.596,0.893,0.567,1.080,0.770,0.362,0.627,0.586,��,6.9,��
2021/10/05,17:20,0.596,0.893,0.570,1.080,0.770,0.361,0.628,0.585,��,6.7,��
2021/10/05,17:30,0.596,0.893,0.569,1.082,0.769,0.365,0.625,0.587,��쐼,4.0,��
2021/10/05,17:40,0.595,0.893,0.568,1.079,0.770,0.362,0.626,0.587,��쐼,4.0,��
2021/10/05,17:50,0.594,0.893,0.570,1.081,0.769,0.362,0.628,0.587,��쐼,4.1,��
2021/10/05,18:00,0.594,0.895,0.567,1.082,0.770,0.361,0.628,0.586,��쐼,4.3,��
2021/10/05,18:10,0.595,0.892,0.570,1.083,0.771,0.362,0.627,0.587,�쐼,4.5,��
2021/10/05,18:20,0.596,0.896,0.568,1.081,0.771,0.363,0.627,0.587,�쐼,5.0,��
2021/10/05,18:30,0.596,0.894,0.569,1.081,0.770,0.362,0.627,0.588,��쐼,4.9,��
2021/10/05,18:40,0.596,0.898,0.569,1.081,0.770,0.363,0.628,0.587,��쐼,3.6,��
2021/10/05,18:50,0.597,0.895,0.571,1.082,0.773,0.363,0.627,0.586,�쐼,4.9,��
2021/10/05,19:00,0.596,0.896,0.569,1.084,0.770,0.363,0.628,0.587,�쐼,5.6,��
2021/10/05,19:10,0.595,0.893,0.570,1.082,0.769,0.362,0.627,0.587,�쐼,4.3,��
2021/10/05,19:20,0.598,0.894,0.568,1.081,0.771,0.363,0.628,0.586,�쐼,4.4,��
2021/10/05,19:30,0.598,0.896,0.570,1.082,0.772,0.362,0.627,0.587,�쐼,3.1,��
2021/10/05,19:40,0.596,0.891,0.570,1.083,0.773,0.363,0.626,0.587,�쐼,4.5,��
2021/10/05,19:50,0.595,0.894,0.570,1.081,0.771,0.363,0.628,0.586,���쐼,4.2,��
2021/10/05,20:00,0.597,0.894,0.571,1.081,0.772,0.362,0.629,0.586,���쐼,4.6,��
2021/10/05,20:10,0.595,0.895,0.567,1.082,0.773,0.362,0.628,0.585,���쐼,3.7,��
2021/10/05,20:20,0.597,0.893,0.567,1.083,0.770,0.362,0.630,0.586,��쐼,4.3,��
2021/10/05,20:30,0.597,0.896,0.569,1.082,0.771,0.364,0.629,0.587,���쐼,5.8,��
2021/10/05,20:40,0.597,0.893,0.564,1.083,0.771,0.363,0.627,0.585,���쐼,6.5,��
2021/10/05,20:50,0.597,0.895,0.566,1.085,0.771,0.362,0.629,0.585,���쐼,6.5,��
2021/10/05,21:00,0.596,0.894,0.569,1.083,0.772,0.361,0.628,0.586,���쐼,5.7,��
2021/10/05,21:10,0.597,0.894,0.568,1.084,0.770,0.363,0.627,0.587,���쐼,5.9,��
2021/10/05,21:20,0.598,0.894,0.569,1.084,0.772,0.363,0.628,0.586,���쐼,6.5,��
2021/10/05,21:30,0.597,0.896,0.568,1.083,0.772,0.363,0.628,0.586,���쐼,4.9,��
2021/10/05,21:40,0.597,0.895,0.569,1.083,0.773,0.362,0.627,0.586,���쐼,3.7,��
2021/10/05,21:50,0.597,0.894,0.569,1.083,0.769,0.361,0.627,0.586,�쐼,4.7,��
2021/10/05,22:00,0.597,0.892,0.571,1.084,0.772,0.361,0.627,0.585,��쐼,4.7,��
2021/10/05,22:10,0.597,0.892,0.568,1.083,0.771,0.364,0.627,0.587,��쐼,3.3,��
2021/10/05,22:20,0.596,0.893,0.570,1.083,0.773,0.362,0.626,0.586,��쐼,5.5,��
2021/10/05,22:30,0.596,0.893,0.568,1.083,0.770,0.362,0.626,0.585,�쐼,4.7,��
2021/10/05,22:40,0.597,0.892,0.570,1.083,0.771,0.363,0.627,0.586,�쐼,4.7,��
2021/10/05,22:50,0.596,0.893,0.570,1.083,0.770,0.362,0.627,0.586,�쐼,4.9,��
2021/10/05,23:00,0.596,0.892,0.570,1.085,0.770,0.361,0.627,0.586,��쐼,5.6,��
2021/10/05,23:10,0.596,0.892,0.570,1.083,0.768,0.362,0.627,0.587,��쐼,6.7,��
2021/10/05,23:20,0.597,0.893,0.570,1.085,0.769,0.362,0.628,0.587,�쐼,6.6,��
2021/10/05,23:30,0.596,0.892,0.567,1.083,0.770,0.362,0.628,0.588,�쐼,7.2,��
2021/10/05,23:40,0.594,0.891,0.568,1.084,0.771,0.361,0.627,0.587,�쐼,6.2,��
2021/10/05,23:50,0.594,0.893,0.568,1.083,0.769,0.363,0.629,0.588,�쐼,5.8,��
